SSA

Satellite information

Favourite Embed

Satellite Type and Status

PAYLOADIN ORBIT

Key statistics

Satellite SSA at a glance.

Uptime

15596

Days in orbit

Revolutions

≈ 13.8

Per day

Orbit

LEO

Low Earth Orbit

Inclination

63.3

Latest

Satellite identification and parameters

Extended collection of information and parameters for SSA.

Object identification

Identified? True

Debris? False

Object name: SSA

International designator: 1983-008E

Object number (NORAD): 13844

Object ID (CCSDS): 13844

Country: UNITED STATES OF AMERICA (US)

Current information (Y/N): Y

RCS size: LARGE

Orbital parameters

Period: 104.637 minutes

Inclination: 63.3087 deg

SMA: 7355.603 km

Apoapsis: 1518.934 km

Periapsis: 436.002 km

RAAN: 324.3561 deg

Eccentricy: 0.07361274

Argument of periapsis: 130.7432 deg

Mean anomaly: 235.9953 deg

Mean motion: 13.7618028 rev/day

Mean motion (dot): 0.00003471 rev/day2

B* drag term: 0.00044700964 1/REarth

Two-line elements (TLE)

Creation date: Oct. 21, 2025, 6:24 p.m.

Reference frame: TEME

Reference center: EARTH

Epoch: Oct. 21, 2025, 11:47 a.m. UTC

TLE line 0: 0 SSA

TLE line 1: 1 13844U 83008E 25294.49107102 .00003471 00000-0 44701-3 0 9999

TLE line 2: 2 13844 63.3087 324.3561 0736127 130.7432 235.9953 13.76180280325988

Live tracking on map

Real-time ground track for satellite SSA.

In-orbit conjunctions

There are no conjunctions computed for SSA, at the moment. Check back to stay up to date, as we update our databases every day.

Go to all conjunctions

Associated space launch

The Parcae satellites were passive ELINT satellites. MSD satellites were dispensers of triplets of ocean surveillance satellites.

SSA was lifted into orbit during the mission ‘Atlas H | Parcae 5A,B,C & MSD 5’, on board a Atlas H space rocket.

The launch took place on Feb. 9, 1983, 1:47 p.m. from Space Launch Complex 3E.

For more information about the launch, click the button.

Launch to space Atlas H | Parcae 5A,B,C & MSD 5
Atlas H | Parcae 5A,B,C & MSD 5

Agency: N/A

Status: Launch Successful

Launch date: Feb. 9, 1983, 1:47 p.m. UTC

Rocket: Atlas H

Launch pad: Space Launch Complex 3E

Location: Vandenberg SFB, CA, USA

...

Latest news about this satellite

There are no fresh news available about this satellite. Check back as we update our databases every day.


Newsletter sign-up

Weekly statistics, charts and insights to help you stay on top of the space industry.